Flight Track Log - Related Links

Times and Time Zones

All times are in EDT time to prevent confusion due to time zone crossing. See the ASQ6115 flight status page for this flight to view local times or setup timezone preferences in your user account.

Time Position Orientation Groundspeed Altitude Reporting Facility
EDT Latitude Longitude Course Direction KTS MPH feet Rate Location/Type
Fri 08:18:05 PM 42.0333 -87.9667 340° North 182 209 3,700  Level Chicago TRACON
Fri 08:19:05 PM 42.0833 -88.0167 323° Northwest 228 262 5,100 431 Climbing Chicago TRACON
Fri 08:21:06 PM 42.1892 -88.0456 349° North 245 282 5,000 843 Descending Chicago Center
Fri 08:22:10 PM 42.2722 -88.0364 North 250 288 7,700 2,468 Climbing Chicago Center
Fri 08:23:00 PM 42.4102 -88.0468 340° North  Level FlightAware Approximate
Fri 08:23:10 PM 42.3444 -88.0306 North 265 305 10,100  Level Chicago Center
Fri 08:24:12 PM 42.4242 -88.0239 North 284 327 11,300 1,073 Climbing Chicago Center
Fri 08:25:13 PM 42.5158 -88.0153 North 323 372 12,300 1,073 Climbing Chicago Center
Fri 08:26:15 PM 42.6247 -88.0356 352° North 346 398 13,500 823 Climbing Chicago Center
Fri 08:27:17 PM 42.7189 -88.0814 340° North 357 411 14,000 242 Climbing Chicago Center
Fri 08:28:19 PM 42.8072 -88.1425 333° Northwest 360 414 14,000  Level Chicago Center
Fri 08:29:21 PM 42.8525 -88.2592 298° West 347 399 14,000  Level Chicago Center
Fri 08:30:23 PM 42.8861 -88.3822 290° West 345 397 14,000  Level Chicago Center
Fri 08:31:25 PM 42.9197 -88.5081 290° West 350 403 14,000 -581 Level Chicago Center
Fri 08:32:27 PM 42.9525 -88.6275 291° West 338 389 12,800 -1,306 Descending Chicago Center
Fri 08:33:29 PM 42.9564 -88.7642 272° West 308 354 11,300 -1,452 Descending Chicago Center
Fri 08:34:31 PM 42.9494 -88.8647 265° West 271 312 9,800 -1,403 Descending Chicago Center
Fri 08:35:33 PM 42.9394 -88.9575 262° West 250 288 8,400 -1,268 Descending Chicago Center
Fri 08:36:34 PM 42.9333 -89.0478 265° West 241 277 7,200 -1,317 Descending Chicago Center
Fri 08:37:36 PM 42.9444 -89.1308 280° West 241 277 5,700 -1,452 Descending Chicago Center
Fri 08:38:38 PM 42.9781 -89.1969 305° West 222 255 4,200 -1,210 Descending Chicago Center
Fri 08:39:40 PM 43.0108 -89.2706 301° West 205 236 3,200 -677 Descending Chicago Center
Fri 08:40:42 PM 43.0364 -89.3269 302° West 190 219 2,800 -484 Descending Chicago Center
Fri 08:41:44 PM 43.0697 -89.3450 338° Northwest 153 176 2,200 -581 Descending Chicago Center

Login

Don't have an account? Register now (free) for customized features, flight alerts, and more!